Location: ??????
(42.0089°N, 44.3281°E)
Time: 18:07:00
(UTC+00:00)

USA 267 - Pass Details

Date: 06 June 2022
Orbit: 1101 x 1106 km, 123.0° (Epoch: 28 June)

Event Time Altitude Azimuth Distance (km) Brightness Sun altitude
Rises 21:23:18 0° 99° (E) 3,913 6.1 -25.1°
Reaches altitude 10° 21:25:56 10° 92° (E) 2,957 5.6 -25.0°
Maximum altitude 21:31:53 39° 26° (NNE) 1,585 4.5 -24.9°
Drops below altitude 10° 21:37:51 10° 320° (NW) 2,965 6.0 -24.7°
Sets 21:40:29 0° 313° (NW) 3,925 6.6 -24.6°
